Regional Weather Roundup
Issued by NWS Mobile, AL

Home | Current Version | Previous Version | Text Only | Print | Product List | Glossary On
Versions: 1 2 3 4 5 6 7 8 9 10 11 12 13 14 15 16 17 18 19 20 21 22 23 24 25 26 27 28 29 30 31 32 33 34 35 36 37 38 39 40 41 42 43 44 45 46 47 48 49 50
000
ASUS44 KMOB 061916
RWRMOB
REGIONAL WEATHER ROUNDUP
NATIONAL WEATHER SERVICE MOBILE AL
200 PM CDT WED MAY 06 2015

ALZ061>064-062000-
COASTAL ALABAMA


CITY           SKY/WX    TMP DP  RH WIND       PRES   REMARKS
MOBILE REG APT PTSUNNY   82  61  48 SE7       30.09F
BROOKLEY FIELD PTSUNNY   81  66  60 S9        30.10F
GULF SHORES    CLEAR     79  64  59 SE12G18   30.09F

$$

ALZ051>060-062000-
INTERIOR SOUTHWEST AND SOUTH CENTRAL ALABAMA


CITY           SKY/WX    TMP DP  RH WIND       PRES   REMARKS
ANDALUSIA/OPP  SUNNY     88  56  33 CALM      30.10F
EVERGREEN      MOSUNNY   83  58  42 E3        30.10F
FLORALA        MOCLDY    81  56  42 VRB5      30.11F
GREENVILLE     MOCLDY    80  54  40 NE7       30.10F

$$

FLZ001>006-062000-
WESTERN FLORIDA PANHANDLE


CITY           SKY/WX    TMP DP  RH WIND       PRES   REMARKS
CRESTVIEW      MOSUNNY   84  55  36 CALM      30.09F
DESTIN         SUNNY     80  63  55 SW8       30.09F
DUKE FIELD     MOSUNNY   84  55  36 NE6       30.08F
MARY ESTHER    SUNNY     81  61  50 VRB6      30.11R
MILTON         PTCLDY    84  58  40 S10       30.08F
PENSACOLA      SUNNY     81  58  45 SE10      30.09F
NAS PENSACOLA  MOSUNNY   79  63  57 SE10      30.09F
VALPARAISO     MOSUNNY   81  62  53 S10       30.08F

$$

...MARINE OBSERVATIONS...

STATION/POSITION TIME  SKY/WX   TEMP    WIND        PRES    VSBY
                                AIR SEA DIR/SP/G
                 (UTC)          (F)     (DEG/KT/KT) (MB)    (MI)
PASCAGOULA       1800            76     140/ 14/ 18 1019.2F
PETIT BOIS ISL   1800            78     100/ 11/ 15 1019.8F
E DAUPHIN ISLAND 1900            73     130/ 14/ 15 1018.8F
MIDDLE BAY LIGHT 1800            74     160/ 15     1018.6F
USCG MOBILE BAY  1800            78 74  160/  6/  9 1018.3F
STATE DOCKS      1800            79 71              1019.0F
MEAHER PARK      1900            76     220/  8     1018.0F
FORT MORGAN      1800                   120/ 13/ 15 1019.0F
12 S ORANGE BCH  1850            73 75  110/ 10/ 10 1018.4F
WVE H/P(F/S)=  4/ 7

PENSACOLA BAY    1800            82 77  140/  3/  6 1019.9F
64 S DAUPHIN ISL 1850            75 75  120/ 14/ 17 1018.7F
WVE H/P(F/S)=  5/ 6

67 S FORT MORGAN 1830            74                 1018.3F
115 SE PENSACOLA 1850            74 76  100/  8/ 10 1019.2F
WVE H/P(F/S)=  3/ 6

MID GULF/42001   1850            79 79  130/ 12/ 14 1016.4F
WVE H/P(F/S)=  4/ 7

EAST GULF/42003  1850            77 81   90/  8/ 10 1017.2F
WVE H/P(F/S)=  4/ 6


$$

...NEARBY LOCATIONS

CITY           SKY/WX    TMP DP  RH WIND       PRES   REMARKS
GULFPORT       MOSUNNY   79  68  69 SE18      30.07F
BILOXI         MOSUNNY   80  69  69 SE16G23   30.07F
PASCAGOULA     PTSUNNY   81  67  62 SE14      30.08F
HATTIESBURG    PTSUNNY   84  61  45 SE7       30.07F
LAUREL         SUNNY     82  59  44 SE8       30.09F
MERIDIAN       PTSUNNY   82  56  40 S5        30.09F
MERIDIAN NAS   MOSUNNY   84  56  38 VRB7      30.10F
MONTGOMERY     MOSUNNY   83  56  39 E7        30.10F
MAXWELL AFB    SUNNY     82  53  35 VRB2      30.11F
TROY           MOSUNNY   83  57  41 N7        30.12F
FORT RUCKER    PTSUNNY   81  58  45 NE8       30.09F
DALEVILLE      SUNNY     83  57  40 NE7       30.09F
DOTHAN         PTSUNNY   82  59  45 E10       30.13F

$$

...OTHER SURROUNDING LOCATIONS...

CITY           SKY/WX    TMP DP  RH WIND       PRES   REMARKS
BIRMINGHAM     MOSUNNY   78  53  41 SE8       30.16F
TUSCALOOSA     MOSUNNY   82  59  45 VRB7      30.12F
COLUMBUS GA    MOSUNNY   80  53  39 VRB7      30.13F
PANAMA CITY    NOT AVBL
TALLAHASSEE    PTSUNNY   85  59  41 E10       30.08F
BATON ROUGE    MOSUNNY   85  63  47 SE9       30.04F
NEW ORLEANS    PTSUNNY   85  62  46 S13       30.05F
SLIDELL        PTSUNNY   81  68  64 SE13      30.06F
JACKSON        PTSUNNY   83  57  41 SE12      30.07F
MCCOMB         MOSUNNY   83  60  45 S6        30.07F

$$

...SURROUNDING MARINE OBSERVATIONS...

STATION/POSITION TIME  SKY/WX   TEMP    WIND        PRES    VSBY
                                AIR SEA DIR/SP/G
                 (UTC)          (F)     (DEG/KT/KT) (MB)    (MI)
WAVELAND         1800            75 75  130/ 14/ 19 1019.1F
PASCAGOULA RGN A 1800            78     120/ 12/ 17 1019.0F
PASCAGOULA PORT  1800               78                N/A
GRAND ISLE       1800            78 76  110/  5/  9 1018.0F
SOUTHWEST PASS   1900            77     130/  4/  5 1017.7F
PILOT STATION E  1800               67  170/  5/  7 1018.5F
SHELL BEACH      1800            77 77  120/ 16/ 19 1017.7F
PANAMA CITY      1800               76  220/ 12/ 13 1018.2F
APALACHICOLA     1800               73  150/ 10/ 12 1018.8F
TYNDALL TOWER C  1900            72     100/  7/  7 1018.9F
S APLCHCLA/42036 1850            74 76   60/  6/  6 1018.5F
WVE H/P(F/S)=  2/ 5


$$



USA.gov is the U.S. government's official web portal to all federal, state and local government web resources and services.